Regional Weather Roundup
Issued by NWS

Home | Current Version | Previous Version | Text Only | Print | Product List | Glossary On
Versions: 1 2 3 4 5 6 7 8 9 10 11 12 13 14 15 16 17 18 19 20 21 22 23 24 25 26 27 28 29 30 31 32 33 34 35 36 37 38 39 40 41 42 43 44 45 46 47 48 49 50
016
ASUS46 KPQR 102210
RWROR

OREGON REGIONAL WEATHER ROUNDUP
NATIONAL WEATHER SERVICE PORTLAND OR
200 PM PST WED FEB 10 2016

NOTE: "FAIR" INDICATES FEW OR NO CLOUDS BELOW 12,000 FEET WITH
NO SIGNIFICANT WEATHER AND/OR OBSTRUCTIONS TO VISIBILITY.

ORZ001>013-102300-
NORTHWEST OREGON


CITY           SKY/WX    TMP DP  RH WIND       PRES   REMARKS
ASTORIA        CLOUDY    55  53  93 S14G25    30.23S FOG
NEWPORT        CLOUDY    55  54  94 S15       30.30S FOG
PORTLAND       LGT RAIN  55  43  63 E7        30.28S
VANCOUVER WA   CLOUDY    57  44  62 E3        30.27F
SCAPPOOSE      MOSUNNY   56  44  64 N3        30.27F
HILLSBORO      CLOUDY    54  47  77 NW3       30.27F
AURORA         CLOUDY    58  49  72 S7        30.28F
MCMINNVILLE    PTSUNNY   59  49  69 SE5       30.27F
SALEM          CLOUDY    62  49  62 S10       30.27S
CORVALLIS      PTSUNNY   63  52  67 S6        30.29S
EUGENE         CLOUDY    60  48  64 CALM      30.28F
$$

ORZ021-028-102300-
SOUTHWEST OREGON


CITY           SKY/WX    TMP DP  RH WIND       PRES   REMARKS
NORTH BEND     CLOUDY    61  55  82 W9        30.28S
BROOKINGS      MOSUNNY   60  49  66 VRB3      30.28F
ROSEBURG       CLOUDY    62  48  60 N5        30.26F
SEXTON SUMMIT  PTSUNNY   50  37  61 S13       30.29F
MEDFORD        PTSUNNY   59  39  47 CALM      30.29F
$$

ORZ014>016-041-102300-
COLUMBIA GORGE


CITY           SKY/WX    TMP DP  RH WIND       PRES   REMARKS
TROUTDALE      PTSUNNY   55  41  59 E7        30.28F
THE DALLES     PTSUNNY   49  38  65 CALM      30.30F
$$

ORZ029>031-041-044-049-050-061>064-502-503-505>511-102300-
EASTERN OREGON


CITY           SKY/WX    TMP DP  RH WIND       PRES   REMARKS
REDMOND        CLOUDY    57  34  41 E7        30.27F
BEND           PTSUNNY   55  34  44 NE5       30.27F
PRINEVILLE     CLOUDY    55  34  44 SE6       30.29F
KLAMATH FALLS  CLOUDY    59  32  36 VRB3      30.31F
LAKEVIEW       PTSUNNY   52  34  50 S5        30.34F
HERMISTON      CLOUDY    47  37  68 CALM      30.27S
PENDLETON      CLOUDY    48  39  71 NW15      30.27R
JOHN DAY       PTSUNNY   59  35  39 NW6       30.28S
MEACHAM        PTSUNNY   48  29  47 CALM      30.27R
LA GRANDE      MOSUNNY   45  28  53 S20G26    30.32S
BAKER CITY     MOSUNNY   39  32  76 SW7       30.37F WCI  34
BURNS          CLOUDY    29  26  89 CALM      30.37S
ROME             N/A     37  34  89 NE5       30.34F WCI  33
ONTARIO        CLOUDY    41  31  67 CALM      30.45
$$




USA.gov is the U.S. government's official web portal to all federal, state and local government web resources and services.